DW8065 Weather Reports


time (UTC)temp
C
wind
direction
speed
KPH
gust
KPH
rain 1hr
cm
rain 24hr
cm
rain mn
cm
humidity
%
barometer
mb
20260507143012 9 282 3.2 32.2 0.00 1.02 0.00 63 1008.2
20260507141515 9 306 12.9 25.7 0.00 1.02 0.00 68 1008.1
20260507140009 9 297 9.7 17.7 0.00 1.02 0.00 69 1008.1
20260507134503 8 307 12.9 25.7 0.00 1.02 0.00 69 1008.2
20260507133116 8 211 1.6 12.9 0.00 1.02 0.00 73 1008.1
20260507131557 7 266 0.0 6.4 0.00 1.02 0.00 78 1008.4
20260507130106 7 277 3.2 14.5 0.00 1.02 0.00 83 1008.2
20260507124624 7 308 1.6 11.3 0.00 1.02 0.00 87 1008.3
20260507123050 7 301 6.4 9.7 0.00 1.02 0.00 87 1008.2
20260507121549 7 308 9.7 16.1 0.00 1.02 0.00 86 1008.1
20260507120047 6 4 0.0 3.2 0.00 1.02 0.00 91 1008.0
20260507114605 6 349 0.0 3.2 0.00 1.02 0.00 92 1007.9
20260507113044 6 24 1.6 4.8 0.00 1.02 0.00 93 1008.0
20260507111543 6 326 0.0 4.8 0.00 1.02 0.00 93 1007.9
20260507110046 6 342 0.0 1.6 0.00 1.02 0.00 93 1007.9
20260507104550 5 342 0.0 1.6 0.00 1.02 0.00 93 1008.0
20260507103041 5 295 0.0 0.0 0.00 1.02 0.00 93 1008.0
20260507101542 4 184 0.0 0.0 0.00 1.02 0.00 93 1007.7
20260507100043 3 184 0.0 0.0 0.00 1.02 0.00 93 1007.6
20260507094542 3 184 0.0 1.6 0.00 1.02 0.00 93 1007.9
20260507093041 4 276 0.0 1.6 0.00 1.02 0.00 93 1007.8
20260507091541 4 276 0.0 1.6 0.00 1.02 0.00 93 1007.9
20260507090034 4 277 0.0 1.6 0.00 1.02 0.00 92 1007.9
20260507084534 5 288 0.0 1.6 0.00 1.02 0.00 93 1007.8
20260507081511 5 288 0.0 1.6 0.00 1.02 0.00 92 1007.7
20260507080008 5 288 0.0 0.0 0.00 1.02 0.00 91 1007.8
20260507074506 5 288 0.0 1.6 0.00 1.02 0.00 91 1007.8
20260507073002 6 290 0.0 3.2 0.00 1.02 0.00 91 1007.6
20260507071503 6 291 0.0 1.6 0.00 1.02 0.00 91 1007.2
20260507070116 6 295 0.0 3.2 0.00 1.02 0.00 91 1007.1
20260507064607 6 311 0.0 0.0 0.00 1.02 0.00 90 1007.2
20260507063101 6 318 0.0 6.4 0.00 1.02 0.00 90 1007.2
20260507061556 6 274 0.0 3.2 0.00 1.02 0.00 89 1007.5
20260507060127 6 297 3.2 8.0 0.00 1.02 0.00 89 1007.0
20260507054555 6 288 0.0 8.0 0.00 1.02 0.00 90 1007.7
20260507053053 6 295 3.2 8.0 0.00 1.02 0.00 89 1007.8
20260507051555 6 291 1.6 9.7 0.00 1.02 0.00 90 1007.5
20260507050050 7 283 1.6 9.7 0.00 1.02 0.00 90 1007.7
20260507044551 7 300 4.8 16.1 0.00 1.02 0.00 90 1007.2
20260507043047 7 281 3.2 11.3 0.00 1.02 0.00 90 1007.4
20260507041544 7 284 1.6 11.3 0.00 1.02 0.00 90 1007.1
20260507040040 7 272 1.6 12.9 0.00 1.02 0.00 90 1007.0
20260507034540 7 257 3.2 11.3 0.00 1.02 1.02 90 1007.0
20260507033039 7 312 4.8 16.1 0.00 1.02 1.02 89 1007.4
20260507031535 7 276 6.4 16.1 0.03 1.02 1.02 90 1007.4
20260507030034 7 302 8.0 19.3 0.03 1.02 1.02 90 1007.3
20260507024532 7 306 8.0 24.1 0.03 1.02 1.02 90 1007.5
20260507023031 7 307 9.7 22.5 0.03 1.02 1.02 91 1007.7
20260507021531 8 285 11.3 20.9 0.03 0.99 0.99 90 1007.6
20260507020039 8 293 12.9 17.7 0.03 0.99 0.99 91 1007.5
20260507014526 8 285 12.9 25.7 0.05 0.99 0.99 91 1007.5
20260507013040 8 300 11.3 19.3 0.05 0.99 0.99 92 1007.3
20260507011523 8 289 12.9 25.7 0.03 0.97 0.97 91 1007.2
20260507010019 8 295 12.9 25.7 0.03 0.97 0.97 91 1006.9
20260507004517 8 299 17.7 24.1 0.00 0.94 0.94 91 1006.5
20260507003014 9 333 8.0 22.5 0.00 0.94 0.94 90 1006.5
20260507001511 9 296 11.3 24.1 0.00 0.94 0.94 91 1006.1
20260507000009 10 318 12.9 20.9 0.03 0.94 0.94 91 1005.7
20260506234505 10 301 3.2 14.5 0.05 0.94 0.94 91 1005.2
20260506233005 10 296 0.0 16.1 0.05 0.94 0.94 91 1005.2
20260506231503 11 298 4.8 17.7 0.05 0.94 0.94 91 1004.8
20260506230106 11 307 9.7 20.9 0.03 0.91 0.91 90 1004.6
20260506224600 12 306 6.4 19.3 0.00 0.89 0.89 90 1004.3
20260506223059 13 278 3.2 9.7 0.00 0.89 0.89 91 1004.1
20260506221601 13 283 4.8 16.1 0.03 0.89 0.89 91 1003.9
20260506220100 14 306 8.0 20.9 0.13 0.89 0.89 91 1003.8
20260506214601 15 308 14.5 19.3 0.23 1.09 0.89 92 1003.5
20260506213056 14 299 6.4 11.3 0.23 1.09 0.89 92 1003.4
20260506211608 15 285 0.0 0.0 0.23 1.07 0.86 92 1003.3
20260506210054 14 285 0.0 1.6 0.10 0.94 0.71 92 1003.4
20260506204553 15 290 1.6 4.8 0.03 0.91 0.66 90 1003.4
20260506203052 15 94 0.0 1.6 0.05 0.91 0.66 91 1003.4
20260506201551 15 91 0.0 1.6 0.05 0.89 0.64 91 1003.5
20260506200051 16 91 0.0 0.0 0.08 0.89 0.64 91 1003.6
20260506194550 15 91 0.0 3.2 0.10 0.89 0.64 91 1003.8
20260506193046 16 137 0.0 0.0 0.13 0.86 0.61 91 1003.9
20260506191543 15 100 0.0 0.0 0.15 0.84 0.58 91 1004.1
20260506190041 15 128 0.0 1.6 0.20 0.81 0.56 91 1004.3
20260506184540 15 139 0.0 1.6 0.25 0.79 0.53 91 1004.5
20260506183039 15 104 0.0 4.8 0.28 0.71 0.48 91 1004.5
20260506181537 15 164 0.0 6.4 0.28 0.69 0.43 91 1004.6
20260506180040 15 110 0.0 11.3 0.23 0.61 0.36 91 1004.7
20260506174533 15 138 0.0 3.2 0.18 0.53 0.28 91 1005.0
20260506173038 15 136 0.0 1.6 0.13 0.46 0.20 91 1005.2
20260506171530 15 278 0.0 0.0 0.10 0.41 0.15 92 1005.2
20260506170027 14 278 0.0 3.2 0.08 0.38 0.13 91 1005.4
20260506164525 13 291 0.0 3.2 0.08 0.36 0.10 90 1005.6
20260506163027 14 290 0.0 1.6 0.08 0.33 0.08 89 1005.7
20260506161527 15 323 0.0 0.0 0.05 0.30 0.05 89 1005.7
20260506160021 15 323 0.0 0.0 0.05 0.30 0.05 88 1006.1
20260506154519 14 323 0.0 0.0 0.03 0.28 0.03 88 1006.5
20260506153016 14 323 0.0 0.0 0.00 0.25 0.00 87 1006.9
20260506151516 14 323 0.0 3.2 0.00 0.25 0.00 87 1007.1
20260506150017 14 311 8.0 9.7 0.00 0.25 0.00 85 1006.9
20260506144514 14 296 4.8 4.8 0.00 0.25 0.00 85 1006.8